Temp
48 46 51 51 51 53 49 49 40 45 46 49 53 54 56 57 56 56 57 57 56 53 51 53 52 53 54 53 54 54 52 49 47 46 46 45 45 44 45 45 45 45 43 42
39 47 47 46 52 50 51 50 48 49 48 60 61 60 57 56 57 56 56 57 58 57 55 54 54 53 54 53 53 52 49 47 47 46 45 43 43 45 46 45 43 42 40 40
36 44 41 33 42 45 45 51 49 44 51 57 56 57 58 55 56 56 57 58 57 56 55 54 53 54 51 51 52 49 47 47 46 45 45 45 47 46 43 40 40 39 37 37
36 36 30 42 53 51 48 51 52 54 56 58 57 58 59 58 56 57 58 58 55 55 54 53 53 52 51 52 50 48 47 46 46 47 47 46 44 43 39 38 38 37 35 35
33 34 38 44 50 46 45 45 56 55 57 58 59 60 55 61 61 59 57 55 55 56 55 53 53 53 53 51 48 47 45 44 44 44 45 43 41 39 38 37 36 35 35 34
31 31 29 43 53 55 55 38 55 57 54 53 56 47 45 58 59 56 56 57 56 56 54 53 53 52 50 48 46 46 45 43 43 41 39 39 39 38 38 36 35 35 34 35
32 31 34 48 55 58 37 39 55 57 56 57 52 49 50 55 55 57 56 56 56 55 52 52 54 51 48 47 45 46 44 42 40 39 38 39 39 38 35 35 34 34 34 34
33 29 28 51 52 45 47 48 51 56 53 51 49 52 54 55 54 55 55 55 55 52 51 52 51 52 47 47 47 45 43 41 38 38 39 38 37 36 36 34 33 33 33 33
37 38 43 54 49 48 50 49 49 52 53 51 50 53 53 52 53 54 55 54 54 52 52 52 51 51 48 47 48 44 40 37 36 37 37 36 35 35 35 35 33 33 33 32
37 41 46 45 47 49 50 50 51 52 52 52 50 51 51 52 51 51 51 51 52 51 50 50 51 52 50 49 47 43 38 36 36 36 35 35 35 35 35 34 34 33 33 32
36 41 44 45 48 49 50 51 52 52 52 51 51 50 50 50 50 50 50 51 51 50 49 49 50 50 50 49 47 42 38 34 35 35 35 34 34 35 34 34 35 34 33 33
35 44 40 43 48 50 49 48 50 50 49 51 51 50 50 48 48 49 48 50 49 48 46 45 46 45 46 45 45 42 37 33 34 35 35 34 34 32 35 34 36 36 35 33
42 49 49 49 50 53 48 48 48 48 48 48 49 48 47 47 47 46 47 45 44 42 42 42 42 41 41 41 40 38 35 34 31 35 35 34 34 33 31 32 34 34 35 35
51 48 44 48 45 50 49 49 49 49 48 47 47 47 46 45 43 39 36 35 35 35 33 35 35 32 32 34 33 32 32 33 32 34 35 34 34 34 33 31 29 29 32 34
48 50 48 48 48 48 49 48 47 46 46 45 46 44 44 43 41 40 32 31 30 29 29 28 25 24 28 34 33 33 32 26 32 33 34 34 34 34 33 32 31 29 29 30
49 49 49 46 47 47 47 46 43 44 45 44 43 42 43 43 41 38 37 34 32 30 31 32 32 33 34 33 33 33 33 32 33 34 34 34 34 33 33 32 32 29 29 29
42 41 43 43 45 45 46 46 45 45 45 43 41 41 39 36 34 32 31 30 30 30 31 32 32 34 34 33 34 33 34 34 33 35 34 34 34 33 33 32 32 30 29 29
47 47 47 46 45 44 44 43 43 41 36 36 33 31 28 28 26 22 23 23 23 23 23 27 32 35 34 34 34 33 33 34 33 34 34 33 34 34 33 33 32 30 30 30
47 45 44 45 44 43 40 36 34 32 30 30 30 27 27 25 27 28 30 30 29 30 32 32 32 33 34 34 34 33 34 34 33 33 33 33 32 32 32 32 31 31 31 29
42 40 39 38 38 35 32 32 32 31 31 29 27 26 26 28 30 30 30 29 32 32 34 34 34 34 35 35 32 34 34 33 33 33 33 33 33 32 32 32 32 31 30 30
35 35 33 32 30 31 30 30 31 30 29 27 27 26 30 32 30 29 29 29 32 33 34 33 34 33 33 33 34 33 33 33 33 33 33 33 33 32 32 32 32 32 31 30
32 31 30 29 29 29 29 30 30 27 28 29 30 30 29 28 29 30 31 30 31 32 32 32 32 33 33 33 33 33 32 32 32 32 32 32 32 32 32 32 32 32 31 31
31 31 29 29 28 28 29 29 29 29 29 29 29 29 28 29 29 28 28 31 32 30 31 30 32 32 32 32 32 32 32 31 31 32 32 32 32 32 32 32 32 32 32 31
29 29 29 30 30 29 27 28 29 29 29 29 29 30 29 28 29 30 31 31 31 29 30 31 32 32 32 32 32 32 32 31 31 32 32 32 32 32 32 32 32 32 32 32
30 30 30 29 29 29 30 30 29 28 28 29 29 29 30 30 28 28 29 29 31 30 30 31 31 31 31 32 32 32 32 32 32 32 31 31 32 32 32 30 30 32 31 31
29 29 30 30 31 29 30 30 28 29 28 28 29 29 29 29 29 29 29 30 29 30 30 31 31 32 32 32 32 32 32 31 32 31 32 32 31 31 28 30 30 30 30 29
30 30 30 30 31 31 30 30 29 28 29 28 28 28 29 28 29 29 30 31 31 31 28 29 31 31 31 32 32 31 32 32 32 31 32 32 29 31 31 31 30 29 29 29
MSLP
994.97 995.07 994.99 994.92 996.05 996.03 996.81 997.09 999.43 998.74 999.13 999.22 999.10 999.43 1000.25 1001.33 1002.62 1003.50 1004.49 1005.50 1006.44 1007.42 1008.20 1008.90 1009.63 1010.16 1010.61 1011.07 1011.60 1012.18 1012.75 1013.21 1013.74 1014.14 1014.23 1014.32 1014.50 1014.73 1014.85 1014.99 1015.15 1015.33 1015.59 1015.95
995.87 995.92 995.51 995.25 995.25 995.91 996.38 996.81 997.97 998.20 997.72 997.98 998.27 999.26 1000.15 1001.11 1002.22 1003.12 1003.88 1004.82 1005.83 1006.92 1007.97 1008.86 1009.49 1010.09 1010.66 1011.26 1011.88 1012.40 1012.98 1013.49 1013.76 1013.98 1014.18 1014.46 1014.57 1014.62 1014.75 1014.94 1015.35 1015.78 1016.05 1016.26
995.69 996.10 996.31 996.04 994.11 995.06 996.10 996.42 996.15 996.32 995.53 997.10 997.76 999.01 999.61 1000.35 1001.16 1002.15 1003.09 1004.19 1005.18 1006.29 1007.41 1008.40 1009.30 1010.00 1010.88 1011.39 1011.95 1012.54 1012.94 1013.25 1013.61 1014.02 1014.23 1014.41 1014.55 1014.95 1015.12 1015.61 1015.92 1016.09 1016.40 1016.61
995.08 996.21 995.00 993.33 993.28 993.28 994.47 994.30 994.97 994.59 995.39 996.00 997.02 998.02 998.69 999.21 1000.08 1001.35 1002.25 1003.44 1004.66 1005.69 1007.06 1008.00 1008.79 1009.65 1010.38 1011.01 1011.61 1012.16 1012.58 1012.94 1013.40 1013.89 1014.32 1014.50 1014.61 1015.04 1015.44 1015.76 1016.12 1016.35 1016.66 1016.72
993.88 994.32 993.82 992.91 992.18 992.60 993.33 992.54 993.51 993.65 994.37 994.85 995.79 996.95 997.54 997.97 998.77 1000.11 1001.45 1002.87 1004.13 1005.02 1006.36 1007.59 1008.44 1009.32 1010.03 1010.61 1011.32 1012.10 1012.61 1012.94 1013.30 1013.77 1013.94 1014.39 1014.75 1015.26 1015.39 1015.49 1016.03 1016.36 1016.59 1016.83
993.54 993.54 992.34 989.88 990.72 991.66 993.35 992.79 991.91 992.45 993.33 994.20 995.36 996.79 996.96 997.37 998.37 999.93 1001.09 1002.45 1003.73 1004.93 1006.02 1007.27 1008.06 1008.83 1009.67 1010.55 1011.08 1011.83 1012.21 1012.71 1013.12 1013.57 1014.07 1014.36 1014.51 1015.00 1015.19 1015.69 1016.00 1016.24 1016.45 1016.17
992.00 992.44 992.03 990.38 990.10 991.07 992.97 989.99 989.08 990.24 991.82 993.38 994.23 994.86 996.89 997.85 999.34 1000.20 1001.21 1002.39 1003.49 1004.62 1005.78 1006.84 1007.45 1008.46 1009.28 1009.93 1010.59 1011.02 1011.74 1012.37 1013.01 1013.42 1013.99 1014.27 1014.58 1014.84 1015.04 1015.49 1015.86 1015.80 1016.01 1016.25
991.94 991.70 991.18 989.03 990.42 990.07 989.70 989.84 989.74 990.03 990.25 993.24 994.49 995.45 996.71 997.79 999.30 1000.57 1001.54 1002.54 1003.24 1004.27 1005.60 1006.29 1006.98 1007.86 1008.66 1009.22 1009.79 1010.48 1011.20 1012.20 1012.89 1013.18 1013.68 1014.10 1014.39 1014.65 1015.03 1015.45 1015.97 1015.90 1015.85 1015.96
989.85 988.74 988.18 987.28 988.52 989.98 989.95 989.86 989.90 989.82 990.55 991.95 994.42 995.64 997.08 998.16 999.30 1000.52 1001.53 1002.63 1003.44 1004.25 1005.26 1006.02 1006.77 1007.28 1008.14 1008.58 1009.32 1010.10 1010.93 1011.88 1012.48 1012.99 1013.32 1013.87 1014.36 1014.58 1014.74 1015.03 1015.39 1015.74 1015.72 1015.88
989.05 989.05 988.97 988.90 989.16 989.94 990.42 990.66 990.26 990.60 991.20 992.42 994.43 995.93 997.40 998.51 999.63 1000.76 1001.85 1002.89 1003.47 1004.30 1005.16 1006.00 1006.49 1007.09 1007.45 1008.07 1008.98 1009.79 1010.64 1011.33 1012.02 1012.71 1013.15 1013.60 1014.01 1014.25 1014.59 1014.83 1014.90 1015.21 1015.45 1015.67
988.99 988.91 989.49 989.50 988.88 990.36 991.39 991.60 991.32 992.14 992.70 993.81 994.96 996.70 997.53 998.79 999.96 1000.96 1001.96 1002.95 1003.71 1004.55 1005.37 1005.95 1006.30 1006.77 1007.14 1007.85 1008.63 1009.56 1010.28 1011.00 1011.79 1012.22 1012.95 1013.38 1013.74 1013.87 1014.06 1014.21 1014.40 1014.67 1014.88 1015.18
987.79 987.74 987.49 988.81 990.17 990.97 991.71 992.28 992.29 992.52 994.08 995.18 996.20 997.27 998.31 999.32 1000.43 1001.38 1002.45 1003.18 1004.21 1004.87 1005.66 1006.48 1006.83 1007.31 1007.80 1008.19 1008.59 1009.31 1010.26 1010.94 1011.36 1011.70 1012.25 1012.91 1013.43 1013.83 1013.87 1013.74 1013.96 1014.18 1014.33 1014.54
986.78 987.67 988.10 989.01 989.80 991.18 992.51 993.41 993.73 994.16 995.08 995.98 997.11 997.93 998.99 1000.06 1000.88 1001.79 1002.92 1004.05 1004.95 1005.65 1006.31 1006.90 1007.33 1007.99 1008.51 1008.83 1009.19 1009.79 1010.17 1010.56 1011.09 1010.98 1011.57 1012.26 1012.86 1013.31 1013.65 1014.04 1014.07 1014.04 1014.11 1014.22
987.17 988.04 989.07 989.56 990.56 991.65 992.35 993.47 994.33 995.45 996.39 997.08 997.98 999.01 999.81 1000.68 1001.85 1002.94 1003.98 1004.98 1005.64 1006.25 1007.00 1007.41 1007.93 1008.49 1009.00 1009.36 1009.75 1009.94 1010.20 1010.51 1010.55 1010.81 1011.03 1011.45 1011.80 1012.40 1012.90 1013.42 1013.81 1014.00 1014.03 1014.16
987.92 987.85 988.47 989.97 991.09 992.44 993.35 994.00 995.18 996.49 997.67 998.14 999.08 1000.08 1000.85 1001.79 1002.78 1003.77 1004.80 1005.70 1006.10 1006.90 1007.54 1008.07 1008.61 1008.75 1009.07 1009.48 1009.85 1010.09 1010.19 1010.19 1010.21 1010.35 1010.57 1010.86 1011.18 1011.62 1012.25 1012.72 1013.05 1013.52 1014.06 1014.25
988.07 988.63 989.74 990.36 991.55 992.76 993.93 994.93 995.90 997.35 998.11 998.97 1000.17 1001.22 1001.97 1002.76 1003.63 1004.56 1005.45 1006.10 1006.71 1007.59 1007.79 1008.07 1008.42 1008.73 1008.83 1009.16 1009.57 1009.77 1009.75 1009.81 1009.99 1010.09 1010.11 1010.28 1010.68 1011.08 1011.59 1012.01 1012.42 1013.02 1013.49 1013.92
988.77 989.52 990.52 991.54 992.15 993.07 994.51 995.79 996.41 997.33 998.72 1000.04 1001.02 1001.78 1002.90 1003.85 1004.78 1005.76 1006.61 1007.19 1007.54 1007.91 1008.30 1008.38 1008.47 1008.66 1008.81 1009.09 1009.12 1009.18 1009.33 1009.35 1009.51 1009.64 1009.51 1009.67 1010.00 1010.45 1010.87 1011.34 1011.79 1012.43 1012.90 1013.37
989.25 989.98 991.07 991.79 992.64 994.24 995.44 996.89 998.18 998.59 999.59 1000.74 1001.98 1002.74 1003.81 1004.89 1005.99 1006.52 1007.00 1007.33 1007.52 1007.87 1007.69 1008.05 1008.07 1007.92 1008.11 1008.24 1008.41 1008.49 1008.68 1008.90 1008.96 1008.95 1009.03 1009.16 1009.42 1009.76 1010.13 1010.62 1011.18 1011.85 1012.44 1012.93
990.18 990.88 992.43 993.41 994.36 995.26 996.61 998.11 999.39 1000.11 1000.90 1001.69 1002.30 1003.61 1004.67 1005.66 1006.22 1006.75 1007.19 1007.34 1007.33 1007.57 1007.65 1007.57 1007.16 1007.19 1007.23 1007.19 1007.43 1007.65 1007.97 1008.12 1008.14 1008.35 1008.61 1008.73 1008.98 1009.24 1009.64 1010.10 1010.66 1011.21 1011.82 1012.35
991.73 992.92 994.64 995.91 996.32 996.84 998.10 998.83 1000.28 1001.34 1002.00 1002.54 1003.32 1004.15 1005.42 1006.13 1006.55 1006.89 1007.07 1006.78 1006.99 1007.00 1006.85 1006.64 1006.68 1006.68 1006.51 1006.59 1006.84 1007.10 1007.25 1007.38 1007.56 1007.85 1008.04 1008.22 1008.46 1008.71 1009.05 1009.46 1010.07 1010.69 1011.32 1011.70
994.20 995.15 996.32 997.24 998.07 999.15 999.20 999.48 1001.07 1002.17 1003.43 1003.57 1004.25 1004.82 1005.53 1006.13 1006.57 1006.67 1006.78 1007.03 1006.52 1005.92 1006.07 1006.05 1006.07 1006.22 1006.24 1006.32 1006.35 1006.53 1006.73 1006.80 1007.03 1007.26 1007.41 1007.62 1007.90 1008.18 1008.56 1008.92 1009.43 1010.02 1010.76 1011.16
995.86 996.84 997.92 998.41 998.93 999.38 999.66 1000.89 1002.25 1002.93 1003.34 1004.03 1004.77 1005.19 1005.74 1005.92 1006.11 1006.33 1006.52 1006.39 1005.37 1005.61 1005.85 1005.92 1006.11 1005.95 1005.92 1005.81 1005.97 1006.20 1006.37 1006.43 1006.59 1006.79 1006.98 1007.20 1007.45 1007.78 1008.13 1008.53 1009.03 1009.59 1010.19 1010.76
997.40 998.25 998.69 998.92 999.43 1000.21 1001.17 1002.13 1002.74 1003.23 1003.83 1004.39 1004.95 1005.22 1005.28 1005.56 1006.04 1006.33 1006.16 1005.15 1005.10 1005.51 1005.68 1005.80 1005.86 1005.77 1005.63 1005.61 1005.67 1005.89 1006.02 1006.16 1006.36 1006.52 1006.72 1006.96 1007.27 1007.55 1007.83 1008.18 1008.69 1009.24 1009.82 1010.38
998.14 998.66 998.98 999.53 1000.23 1001.25 1002.11 1002.69 1003.06 1003.55 1004.13 1004.65 1004.79 1004.85 1005.26 1005.69 1005.86 1005.53 1004.96 1005.10 1005.34 1005.44 1005.29 1005.32 1005.28 1005.26 1005.28 1005.22 1005.24 1005.50 1005.68 1005.90 1006.15 1006.42 1006.68 1006.94 1007.17 1007.41 1007.75 1008.11 1008.60 1009.03 1009.53 1010.06
998.68 999.26 999.82 1000.43 1001.05 1001.59 1002.09 1002.70 1003.27 1003.75 1004.08 1004.41 1004.72 1005.02 1005.34 1005.40 1005.06 1004.83 1004.98 1005.06 1005.13 1005.00 1004.96 1004.84 1004.87 1004.88 1004.98 1004.84 1004.98 1005.23 1005.49 1005.77 1005.97 1006.34 1006.64 1006.87 1007.09 1007.36 1007.74 1008.23 1008.65 1009.02 1009.51 1009.99
999.48 1000.00 1000.37 1000.70 1001.04 1001.51 1002.08 1002.63 1003.15 1003.67 1004.10 1004.54 1004.86 1004.96 1004.80 1004.73 1004.84 1004.95 1004.95 1004.82 1004.76 1004.76 1004.78 1004.69 1004.65 1004.70 1004.75 1004.79 1004.92 1005.15 1005.44 1005.75 1005.99 1006.29 1006.51 1006.84 1007.14 1007.54 1008.03 1008.39 1008.80 1009.22 1009.65 1010.10
999.90 1000.20 1000.48 1000.72 1000.98 1001.51 1002.18 1002.75 1003.32 1003.86 1004.16 1004.36 1004.40 1004.62 1004.72 1004.71 1004.84 1004.79 1004.65 1004.58 1004.63 1004.73 1004.79 1004.71 1004.67 1004.69 1004.71 1004.82 1004.99 1005.22 1005.42 1005.69 1006.02 1006.39 1006.69 1007.02 1007.34 1007.72 1008.13 1008.55 1008.97 1009.45 1009.93 1010.32
Wind_Speed
23 4 16 23 18 31 30 27 18 15 19 9 9 9 15 16 14 16 15 15 12 10 8 8 8 8 7 6 4 3 6 7 6 5 5 5 4 3 3 5 5 5 5 5
15 6 5 12 18 12 20 20 19 16 15 14 10 6 9 17 19 19 17 14 13 13 10 9 8 7 7 5 3 6 6 6 5 5 4 2 2 3 3 5 5 5 5 4
14 16 9 3 21 20 21 20 27 22 21 8 11 16 13 19 21 20 18 15 12 14 12 9 8 8 7 7 7 6 6 5 5 3 3 2 3 4 5 5 4 4 4 4
8 9 15 9 22 20 25 24 25 20 20 17 16 18 13 21 22 19 18 17 15 13 12 10 8 8 8 7 6 6 5 5 3 3 1 2 4 4 5 4 4 3 3 3
9 15 1 5 14 27 24 28 20 27 18 14 13 18 12 22 23 21 15 15 14 12 11 8 9 9 8 7 6 6 5 5 5 5 5 6 5 5 5 5 4 4 3 4
6 10 14 12 15 21 16 14 20 18 10 11 14 14 7 15 18 18 19 17 15 12 9 10 8 9 9 8 8 7 6 6 5 5 6 5 6 6 3 3 4 3 3 5
8 4 5 5 17 18 13 15 21 23 19 19 19 8 10 17 15 17 17 17 14 11 11 9 8 10 9 8 8 8 8 7 6 5 5 5 4 4 5 5 4 5 5 4
7 5 7 15 18 23 8 1 6 15 16 15 13 21 19 19 19 18 17 14 11 9 8 8 8 12 9 8 10 9 8 7 6 5 4 4 5 4 4 5 5 4 5 3
11 11 4 23 10 6 5 7 6 13 17 24 21 21 19 19 19 16 15 11 8 8 8 6 9 9 10 8 12 11 8 8 5 4 4 4 4 5 4 5 5 4 4 4
7 4 13 10 8 8 6 11 12 19 22 24 23 21 20 16 13 11 8 7 6 8 7 6 6 8 7 9 12 11 9 8 6 4 4 4 3 3 3 4 4 4 4 5
3 8 12 6 13 11 14 15 20 18 20 21 22 17 17 14 12 9 8 7 6 7 6 7 7 7 7 8 10 9 8 7 7 6 5 4 4 4 5 4 5 5 5 5
8 15 6 14 11 14 17 15 17 22 18 14 15 15 13 11 7 8 8 7 7 6 9 8 10 10 10 7 7 8 7 5 6 6 5 4 4 2 1 5 8 6 7 5
6 9 14 18 17 17 15 13 13 14 14 15 11 10 9 8 7 9 8 10 10 9 8 7 7 7 6 6 6 6 5 5 3 4 6 7 6 6 5 1 2 4 5 9
20 22 18 22 17 17 18 16 15 11 10 10 8 8 8 9 8 9 8 7 7 8 7 6 5 3 4 5 4 3 3 2 4 5 5 6 7 7 5 6 5 2 3 4
12 13 18 16 19 16 16 16 15 12 10 9 8 8 8 9 8 7 7 6 7 7 6 5 3 2 1 1 2 4 4 2 3 3 6 7 6 6 6 6 5 4 3 3
15 18 17 21 22 19 18 14 14 11 11 10 11 10 8 8 9 9 8 6 5 3 4 3 1 2 2 2 4 3 4 6 7 3 5 6 6 6 6 6 6 6 6 6
18 18 17 18 18 17 17 12 10 12 10 11 9 9 11 10 8 9 7 6 6 5 5 5 5 4 5 5 5 4 5 4 6 7 6 6 7 7 6 6 6 7 7 7
14 15 16 16 16 14 14 11 11 14 12 13 12 12 10 8 6 4 3 3 3 1 2 5 7 6 5 6 6 5 5 6 5 5 5 6 7 7 7 7 7 7 6 7
15 15 12 12 12 16 15 14 12 13 12 11 12 10 8 6 4 3 2 2 1 4 6 6 6 6 6 7 6 5 6 6 5 4 5 6 6 6 7 7 7 7 7 8
17 20 19 17 15 17 15 13 13 11 9 10 9 8 7 4 4 4 4 3 4 5 7 6 5 5 5 5 6 5 5 6 5 5 6 7 7 7 7 9 8 8 8 8
17 17 17 16 15 13 12 11 11 11 7 7 7 6 5 5 4 2 3 5 7 4 4 2 3 3 2 3 4 4 4 4 5 6 7 7 7 7 8 8 8 8 8 8
13 14 13 13 14 13 11 11 10 7 7 6 5 5 5 4 4 4 6 7 2 0 1 0 1 3 3 2 3 3 3 4 4 4 5 6 6 7 7 7 8 7 7 7
12 11 11 12 12 11 10 8 6 6 6 5 5 5 3 3 2 3 4 2 2 2 2 2 3 2 2 2 3 3 3 3 3 5 5 5 5 5 5 7 6 7 7 7
11 10 10 11 11 9 9 6 6 5 5 5 4 3 3 2 3 3 2 0 3 1 1 3 3 3 3 2 3 4 3 3 3 3 3 6 6 6 5 6 6 6 6 7
10 9 9 8 8 5 9 7 6 5 4 3 3 4 4 3 2 1 1 1 4 2 2 1 2 3 2 2 3 3 3 3 3 4 4 5 5 5 5 5 5 6 5 6
9 6 6 7 6 5 5 5 4 3 3 3 3 3 2 1 1 2 2 2 1 0 0 0 1 1 1 2 3 3 3 4 4 3 5 5 5 5 4 5 5 5 6 5
6 6 4 4 5 5 4 4 5 4 4 3 3 2 2 1 0 1 2 1 1 2 1 0 1 1 1 2 3 3 4 4 5 4 4 5 4 5 5 5 6 6 6 6
Wind_Direction
220 192 195 204 217 197 207 214 203 220 222 208 190 167 162 159 149 146 151 152 154 154 154 151 140 124 111 101 98 114 101 99 102 88 74 75 73 74 76 73 75 62 58 60
200 188 172 200 189 182 219 217 230 232 228 191 169 140 157 153 154 161 160 156 159 157 153 142 134 130 116 106 70 104 100 102 104 88 78 106 109 73 61 71 72 83 82 84
204 181 154 194 204 184 201 213 209 212 215 155 159 194 197 165 162 165 163 167 162 145 142 132 130 127 129 111 105 105 101 86 75 54 48 35 66 37 76 80 82 100 93 91
173 157 203 254 177 189 210 221 216 225 204 214 180 191 190 178 168 169 166 165 144 137 135 140 143 136 139 130 128 131 123 111 131 161 269 238 133 115 121 115 111 112 108 119
159 195 149 231 197 194 192 223 211 213 202 191 185 193 212 182 171 167 159 145 142 138 142 148 149 150 137 136 146 145 171 171 176 193 177 154 149 137 152 138 150 153 151 132
152 180 204 204 171 186 190 253 205 205 176 150 146 186 203 164 149 135 134 138 140 143 133 140 156 150 145 149 147 166 165 173 166 156 172 176 167 167 144 144 144 136 159 146
162 154 269 230 159 140 163 236 175 183 181 185 190 169 145 122 123 127 134 136 136 135 146 161 172 152 159 164 163 164 144 147 161 164 185 199 180 172 159 155 159 164 160 182
170 146 226 194 159 177 193 141 164 166 149 145 125 133 137 132 135 136 138 143 144 141 158 177 162 158 167 172 166 150 138 148 158 159 176 202 196 176 154 150 167 178 165 148
201 201 243 163 149 125 170 142 146 126 133 128 128 143 141 139 138 142 141 139 138 146 162 175 160 160 169 192 148 140 132 137 145 160 175 199 193 180 161 170 176 187 180 159
107 266 131 116 106 109 107 116 108 121 128 127 128 131 134 132 126 124 123 129 128 134 150 172 157 155 169 152 147 145 146 150 150 156 168 180 175 176 182 185 189 186 188 182
82 123 106 122 118 126 118 116 111 111 119 125 125 127 127 126 126 128 131 143 146 154 155 159 154 138 133 141 154 153 152 151 163 162 168 185 204 194 192 192 187 195 200 185
192 166 116 138 137 129 125 123 117 117 114 112 123 127 124 123 123 123 126 128 135 129 101 83 75 61 56 69 97 137 150 164 175 163 159 171 179 177 153 176 174 192 190 171
134 125 120 131 122 128 125 118 104 102 110 117 111 110 111 118 112 112 97 92 101 105 103 96 91 92 79 68 69 84 124 172 167 165 161 172 176 187 179 92 193 198 220 194
145 132 132 148 149 135 124 116 107 102 99 100 103 106 109 110 102 111 110 114 109 105 94 88 76 63 43 47 55 70 128 177 183 190 178 179 175 187 189 184 189 180 198 174
135 133 130 126 126 123 118 117 115 116 119 104 100 99 98 96 104 110 111 112 101 102 108 111 115 276 125 324 269 262 262 234 196 204 192 187 177 175 186 183 179 159 139 153
144 141 146 136 139 131 130 128 127 131 121 113 113 109 107 104 96 105 94 102 93 109 86 94 171 253 245 201 224 221 246 250 255 220 197 178 175 178 180 184 172 168 172 168
139 145 140 133 133 130 135 136 136 134 127 119 112 104 92 90 83 89 97 103 119 145 185 207 234 238 248 235 229 226 243 223 219 242 202 184 179 186 182 179 176 175 180 172
117 120 122 124 125 127 129 113 106 100 99 103 100 94 87 88 110 110 101 116 104 313 201 224 228 246 226 219 214 205 214 220 209 216 200 186 191 189 183 179 173 169 171 174
104 105 108 116 116 110 103 100 92 99 100 105 100 96 104 117 125 114 109 182 211 261 259 250 246 231 225 211 195 202 218 206 200 197 199 198 194 183 178 173 174 173 170 171
87 84 85 86 91 100 98 99 103 97 101 99 107 111 116 130 157 185 199 219 235 239 253 256 254 249 240 227 204 204 201 201 202 202 197 197 199 186 179 173 171 172 172 174
96 96 96 98 94 94 93 95 98 99 107 108 112 126 141 168 165 157 212 232 229 220 200 302 230 226 209 223 216 192 194 193 202 204 202 200 193 187 181 174 171 169 174 175
94 97 100 99 98 87 77 90 105 106 102 104 119 145 162 169 185 207 223 223 202 146 127 135 258 231 206 208 175 180 190 197 200 195 195 191 187 183 179 174 175 171 166 170
102 108 106 102 102 100 90 92 99 114 128 140 158 165 153 147 169 204 231 80 78 155 199 208 270 274 260 198 183 199 197 203 213 220 202 182 178 177 170 163 159 160 164 165
108 104 100 99 104 111 125 129 117 123 132 141 150 150 154 178 226 206 89 111 252 239 243 247 256 265 268 214 194 191 175 174 179 180 178 178 179 164 153 155 159 158 156 153
106 103 110 123 134 142 131 136 134 141 153 157 170 166 172 197 173 321 315 283 292 275 242 258 311 276 246 196 171 170 157 165 175 161 164 176 166 147 137 136 146 149 143 146
119 127 142 155 149 136 133 144 143 142 141 149 158 163 141 125 181 252 251 254 248 59 161 82 2 251 211 168 159 160 146 150 146 144 138 151 129 126 126 131 131 129 131 131
133 141 136 94 103 118 119 141 138 149 149 147 123 138 135 122 324 308 112 87 93 104 97 24 26 40 119 147 138 138 135 136 141 132 144 137 122 131 132 127 125 123 124 126